This is the latest recevied weather packets stored in our database for station/object TG5ALY-15. If no packets are shown the sender has not sent any weather packets the latest 10 day(s).
| Time | Temp. | Humidity | Pressure | Rain* | Wind** | Luminosity | Snow |
|---|---|---|---|---|---|---|---|
| 1777806452 | 13.89° C | 91% | 1030.8 hPa | 0 mm | - | 0 W/m² | - |
| 1777805252 | 13.89° C | 91% | 1030.4 hPa | 0.76 mm | - | 0 W/m² | - |
| 1777804047 | 13.89° C | 90% | 1030.4 hPa | 0.76 mm | - | 0 W/m² | - |
| 1777802846 | 12.78° C | 88% | 1030.4 hPa | 0 mm | - | 0 W/m² | - |
| 1777801641 | 12.78° C | 86% | 1029.9 hPa | 0 mm | - | 0 W/m² | - |
| 1777800438 | 13.33° C | 84% | 1029.9 hPa | 0 mm | - | 0 W/m² | - |
| 1777799235 | 12.78° C | 84% | 1029.9 hPa | 0 mm | - | 0 W/m² | - |
| 1777798032 | 12.78° C | 85% | 1029.9 hPa | 0 mm | - | 0 W/m² | - |
| 1777796828 | 12.22° C | 85% | 1029.9 hPa | 0 mm | - | 0 W/m² | - |
| 1777795623 | 12.22° C | 86% | 1030.4 hPa | 0 mm | - | 0 W/m² | - |
| 1777794421 | 12.78° C | 84% | 1030.4 hPa | 0 mm | - | 0 W/m² | - |
| 1777793220 | 13.33° C | 84% | 1030.4 hPa | 0 mm | - | 0 W/m² | - |
| 1777792019 | 12.78° C | 85% | 1030.8 hPa | 0 mm | - | 0 W/m² | - |
| 1777790814 | 12.78° C | 87% | 1030.8 hPa | 0 mm | - | 0 W/m² | - |
| 1777789611 | 13.33° C | 82% | 1031.7 hPa | 0 mm | - | 0 W/m² | - |
| 1777788410 | 13.33° C | 82% | 1031.7 hPa | 0 mm | - | 0 W/m² | - |
| 1777787209 | 13.89° C | 81% | 1031.7 hPa | 0 mm | - | 0 W/m² | - |
| 1777786005 | 13.89° C | 82% | 1032.1 hPa | 0 mm | - | 0 W/m² | - |
| 1777784803 | 13.89° C | 82% | 1032.1 hPa | 0 mm | - | 0 W/m² | - |
| 1777783602 | 14.44° C | 83% | 1032.6 hPa | 0 mm | - | 0 W/m² | - |
| 1777782402 | 15° C | 81% | 1032.6 hPa | 0 mm | - | 0 W/m² | - |
| 1777781201 | 15° C | 82% | 1032.1 hPa | 0 mm | - | 0 W/m² | - |
| 1777779996 | 15.56° C | 81% | 1032.1 hPa | 0 mm | - | 0 W/m² | - |
| 1777778792 | 16.11° C | 80% | 1031.7 hPa | 0 mm | - | 0 W/m² | - |
| 1777777592 | 16.11° C | 78% | 1031.7 hPa | 0 mm | - | 0 W/m² | - |
* Rain latest hour (hover to see other rain measurements)
** Current wind speed in m/s (hover to see current wind gust speed)